EW1604 Weather Reports


time (UTC)temp
F
wind
direction
speed
knots
gust
knots
rain 1hr
in
rain 24hr
in
rain mn
in
humidity
%
barometer
mb
20260510201542 83 110 0.9 4.3 0.00 0.27 0.01 73 1015.1
20260510200042 83 243 1.7 6.1 0.00 0.27 0.01 71 1015.3
20260510194542 84 174 1.7 4.3 0.00 0.30 0.01 73 1015.3
20260510193040 84 72 0.9 6.1 0.00 0.30 0.01 71 1015.4
20260510191541 83 326 1.7 8.7 0.00 0.30 0.01 71 1015.4
20260510190041 84 131 0.9 4.3 0.00 0.30 0.01 72 1015.3
20260510184540 83 181 2.6 4.3 0.00 0.35 0.01 70 1015.5
20260510183038 83 157 1.7 4.3 0.00 0.35 0.01 71 1015.7
20260510181536 83 341 0.9 3.5 0.00 0.35 0.01 71 1015.8
20260510180041 82 104 0.0 1.7 0.00 0.35 0.01 72 1016.1
20260510174532 82 30 0.0 1.7 0.00 0.38 0.01 70 1016.4
20260510173035 82 152 0.0 3.5 0.00 0.38 0.01 74 1016.5
20260510171535 82 156 0.0 2.6 0.00 0.38 0.01 73 1016.6
20260510170028 82 116 0.0 2.6 0.00 0.38 0.01 76 1016.7
20260510164524 81 10 0.0 1.7 0.00 0.45 0.01 76 1016.8
20260510163023 80 153 0.9 5.2 0.00 0.45 0.01 75 1016.9
20260510161521 79 130 0.0 3.5 0.00 0.45 0.01 78 1016.8
20260510160020 79 128 0.0 1.7 0.00 0.45 0.01 84 1016.6
20260510154516 77 158 0.9 3.5 0.00 0.76 0.01 85 1016.6
20260510153030 76 309 0.0 4.3 0.00 0.76 0.01 88 1016.8
20260510151515 76 257 0.0 2.6 0.00 0.76 0.01 89 1016.8
20260510150008 75 85 0.0 2.6 0.00 0.76 0.01 90 1016.9
20260510144509 74 118 0.0 3.5 0.00 1.13 0.01 92 1016.8
20260510143001 72 172 0.0 1.7 0.00 1.13 0.01 96 1017.0
20260510141600 71 106 0.0 2.6 0.00 1.13 0.01 97 1017.0
20260510140056 70 108 0.0 0.9 0.00 1.13 0.01 98 1017.0
20260510134556 69 113 0.0 2.6 0.00 1.26 0.01 98 1016.7
20260510133052 69 154 0.0 0.9 0.00 1.26 0.01 99 1016.5
20260510131549 66 228 0.0 0.0 0.00 1.26 0.01 99 1016.6
20260510130050 66 158 0.0 1.7 0.00 1.26 0.01 99 1016.5
20260510124557 66 108 0.0 0.9 0.00 1.29 0.01 99 1016.4
20260510123043 65 134 0.0 0.0 0.00 1.29 0.01 99 1016.1
20260510121542 65 100 0.0 0.0 0.00 1.29 0.01 99 1015.8
20260510120025 64 100 0.0 0.0 0.00 1.29 0.01 99 1015.5
20260510114514 64 139 0.0 1.7 0.00 1.29 0.01 99 1015.2
20260510113005 64 107 0.0 0.9 0.01 1.29 0.01 99 1014.9
20260510111503 64 80 0.0 0.9 0.01 1.29 0.01 99 1014.7
20260510110005 64 112 0.0 1.7 0.01 1.29 0.01 99 1014.5
20260510104501 64 98 0.0 0.0 0.01 1.31 0.01 99 1014.5
20260510103059 64 139 0.0 0.9 0.00 1.30 0.00 99 1014.3
20260510101557 64 85 0.0 0.9 0.00 1.30 0.00 99 1014.0
20260510100101 64 143 0.0 0.0 0.00 1.30 0.00 99 1013.9
20260510094555 63 96 0.0 0.0 0.00 1.30 0.00 99 1013.9
20260510093101 63 95 0.0 0.0 0.00 1.30 0.00 99 1013.6
20260510091552 64 91 0.0 0.0 0.00 1.30 0.00 99 1013.5
20260510090050 64 305 0.0 0.0 0.00 1.30 0.00 99 1013.4
20260510084548 64 174 0.0 0.0 0.00 1.36 0.00 99 1013.0
20260510083059 64 314 0.0 0.0 0.00 1.36 0.00 99 1012.9
20260510081546 64 315 0.0 0.0 0.00 1.36 0.00 99 1012.8
20260510080045 64 149 0.0 0.0 0.00 1.36 0.00 99 1012.7
20260510074545 65 149 0.0 0.0 0.00 1.38 0.00 99 1012.7
20260510073045 65 150 0.0 0.0 0.00 1.38 0.00 99 1012.7
20260510071543 65 149 0.0 0.0 0.00 1.38 0.00 99 1012.7
20260510070041 65 146 0.0 0.0 0.00 1.38 0.00 99 1012.7
20260510064541 65 160 0.0 0.0 0.00 1.42 0.00 99 1012.8
20260510063040 66 198 0.0 0.0 0.00 1.42 0.00 99 1012.7
20260510061538 66 198 0.0 0.0 0.00 1.42 0.00 99 1012.9
20260510060038 65 198 0.0 0.0 0.00 1.42 0.00 99 1013.1
20260510054538 65 195 0.0 0.0 0.00 1.42 0.00 99 1013.0
20260510053036 65 195 0.0 0.0 0.00 1.42 0.00 99 1013.0
20260510051534 65 195 0.0 0.0 0.00 1.42 0.00 99 1012.9
20260510050033 66 195 0.0 0.0 0.00 1.42 0.00 99 1013.1
20260510044532 66 195 0.0 0.0 0.00 1.42 1.42 99 1013.2
20260510043031 67 195 0.0 0.0 0.00 1.42 1.42 99 1013.2
20260510041530 67 243 0.0 0.9 0.00 1.42 1.42 99 1013.1
20260510040030 67 123 0.0 0.9 0.00 1.42 1.42 99 1013.6
20260510034530 67 214 0.0 0.0 0.00 1.42 1.42 99 1014.1
20260510033029 67 214 0.0 0.0 0.00 1.42 1.42 99 1014.4
20260510031528 67 230 0.0 1.7 0.00 1.42 1.42 99 1014.0
20260510030029 67 128 0.0 0.9 0.00 1.42 1.42 99 1013.0
20260510024528 67 142 0.0 0.0 0.00 1.42 1.42 99 1013.5
20260510023031 67 142 0.0 0.0 0.01 1.42 1.42 99 1013.4
20260510021530 67 142 0.0 0.0 0.01 1.42 1.42 99 1013.1
20260510020026 67 140 0.0 1.7 0.02 1.42 1.42 99 1012.8
20260510014526 67 89 0.0 0.9 0.02 1.46 1.42 99 1012.8
20260510013026 67 132 0.0 0.0 0.01 1.45 1.41 99 1013.0
20260510011525 67 142 0.0 0.0 0.02 1.45 1.41 99 1013.2
20260510010024 67 142 0.0 0.0 0.01 1.44 1.40 99 1012.9
20260510004524 67 216 0.0 0.0 0.02 1.45 1.40 98 1012.8
20260510003024 67 139 0.0 0.0 0.03 1.45 1.40 98 1012.4
20260510001522 67 205 0.0 0.0 0.02 1.44 1.39 98 1012.8
20260510000028 67 226 0.0 0.9 0.02 1.44 1.39 98 1013.1
20260509234535 67 152 0.0 2.6 0.01 1.45 1.38 98 1013.1
20260509233020 67 129 0.0 2.6 0.03 1.44 1.37 98 1010.8
20260509231520 68 133 0.0 0.0 0.07 1.44 1.37 98 1011.9
20260509230019 68 133 0.0 1.7 0.10 1.44 1.37 98 1012.2
20260509224529 68 306 0.0 0.9 0.11 1.52 1.37 98 1012.3
20260509223019 68 3 0.0 0.0 0.09 1.49 1.34 98 1012.0
20260509221518 68 152 0.9 3.5 0.06 1.45 1.30 98 1011.3
20260509220017 69 108 0.0 1.7 0.04 1.42 1.27 98 1011.4
20260509214517 69 131 0.0 0.0 0.04 1.63 1.26 98 1011.8
20260509213016 69 119 0.0 0.0 0.05 1.62 1.25 98 1011.7
20260509211515 69 115 0.0 0.9 0.06 1.61 1.24 98 1011.7
20260509210015 69 116 0.0 0.9 0.07 1.60 1.23 98 1011.4
20260509204515 69 8 0.0 0.0 0.07 1.93 1.22 98 1011.6
20260509203014 69 121 0.0 0.0 0.04 1.90 1.19 98 1011.5